Weather History for Texarkana, AR

Change the Weather History Date:

Saturday, January 18, 2014

  Actual Average Record
Temperature  
Mean Temperature 48 °F 44 °F  
Max Temperature 65 °F 54 °F 77 °F (1950)
Min Temperature 31 °F 34 °F -3 °F (1930)
Degree Days  
Heating Degree Days 17 21  
Month to date heating degree days 410 391  
Since 1 July heating degree days 1574 1458  
Cooling Degree Days 0 0  
Month to date cooling degree days 0 0  
Year to date cooling degree days 0 0  
Moisture  
Dew Point 22 °F    
Average Humidity 41    
Maximum Humidity 63    
Minimum Humidity 19    
Precipitation  
Precipitation 0.00 in 0.10 in 1.33 in (1956)
Month to date precipitation 0.73 1.98  
Year to date precipitation 0.73 1.98  
Snow  
Snow 0.00 in - - ()
Month to date snowfall T  
Since 1 July snowfall 0.1  
Snow Depth 0.00 in    
Sea Level Pressure  
Sea Level Pressure 30.09 in    
Wind  
Wind Speed 13 mph (SW)    
Max Wind Speed 31 mph    
Max Gust Speed 39 mph    
Visibility 10 miles    
Events      
T = Trace of Precipitation, MM = Missing Value Source: NWS Daily Summary

Daily Weather History Graph

Daily Weather History Graph

Search for Another Location

Airport:

Trip Planner

Search our weather history database for the weather conditions in past years. The results will help you decide how hot, cold, wet, or windy it might be!

Date:

Astronomy

Jan. 18, 2014 Rise Set
Actual Time 7:19 AM CST 5:34 PM CST
Civil Twilight 6:52 AM CST 6:00 PM CST
Nautical Twilight 6:21 AM CST 6:31 PM CST
Astronomical Twilight 5:52 AM CST 7:00 PM CST
Moon 8:06 PM CST (1/18) 8:28 AM CST (1/18)
Length of Visible Light 11h 08m
Length of Day
10h 14m
Waning Gibbous, 94% of the Moon is Illuminated
Jan 18
Waning Gibbous
Jan 23
Last Quarter
Jan 30
New
Feb 6
First Quarter
Feb 14
Full

Hourly Weather History & Observations

Time (CST) Temp. Windchill Dew Point Humidity Pressure Visibility Wind Dir Wind Speed Gust Speed Precip Events Conditions
12:53 AM 32.0 °F 26.4 °F 19.0 °F 59% 30.21 in 10.0 mi SSW 5.8 mph - N/A   Clear
1:53 AM 32.0 °F 27.5 °F 18.0 °F 56% 30.21 in 10.0 mi South 4.6 mph - N/A   Clear
2:53 AM 34.0 °F 28.0 °F 18.0 °F 52% 30.19 in 10.0 mi South 6.9 mph - N/A   Clear
3:53 AM 34.0 °F 28.0 °F 17.1 °F 50% 30.18 in 10.0 mi SSW 6.9 mph - N/A   Clear
4:53 AM 34.0 °F 28.0 °F 17.1 °F 50% 30.16 in 10.0 mi SSW 6.9 mph - N/A   Clear
5:53 AM 34.0 °F 28.0 °F 17.1 °F 50% 30.16 in 10.0 mi SSW 6.9 mph - N/A   Clear
6:53 AM 34.0 °F 27.2 °F 17.1 °F 50% 30.15 in 10.0 mi SSW 8.1 mph - N/A   Clear
7:53 AM 35.1 °F 27.4 °F 17.1 °F 48% 30.14 in 10.0 mi SSW 10.4 mph - N/A   Clear
8:53 AM 39.0 °F 31.0 °F 19.0 °F 45% 30.14 in 10.0 mi SW 13.8 mph - N/A   Clear
9:53 AM 46.0 °F 39.3 °F 19.0 °F 34% 30.14 in 10.0 mi SW 16.1 mph - N/A   Clear
10:53 AM 54.0 °F - 21.0 °F 28% 30.11 in 10.0 mi SW 16.1 mph 28.8 mph N/A   Clear
11:53 AM 60.1 °F - 21.0 °F 22% 30.08 in 10.0 mi WSW 23.0 mph 31.1 mph N/A   Clear
12:53 PM 63.0 °F - 21.9 °F 21% 30.02 in 10.0 mi WSW 20.7 mph 28.8 mph N/A   Clear
1:53 PM 64.0 °F - 21.9 °F 20% 29.98 in 10.0 mi WSW 23.0 mph 35.7 mph N/A   Clear
2:53 PM 64.0 °F - 23.0 °F 21% 29.96 in 10.0 mi WSW 25.3 mph 34.5 mph N/A   Clear
3:53 PM 63.0 °F - 24.1 °F 23% 29.97 in 10.0 mi WSW 25.3 mph 34.5 mph N/A   Clear
4:53 PM 62.1 °F - 25.0 °F 24% 29.97 in 10.0 mi WSW 23.0 mph 28.8 mph N/A   Clear
5:53 PM 59.0 °F - 27.0 °F 29% 29.96 in 10.0 mi SW 19.6 mph 27.6 mph N/A   Clear
6:53 PM 57.9 °F - 28.9 °F 33% 30.01 in 10.0 mi West 10.4 mph - N/A   Clear
7:53 PM 55.0 °F - 30.9 °F 40% 30.02 in 10.0 mi WSW 9.2 mph - N/A   Clear
8:53 PM 54.0 °F - 28.9 °F 38% 30.05 in 10.0 mi WNW 8.1 mph - N/A   Clear
9:53 PM 54.0 °F - 26.1 °F 34% 30.07 in 10.0 mi WNW 9.2 mph - N/A   Clear
10:53 PM 52.0 °F - 25.0 °F 35% 30.09 in 10.0 mi NW 12.7 mph - N/A   Clear
11:53 PM 48.9 °F - 24.1 °F 38% 30.10 in 10.0 mi NW 9.2 mph - N/A   Clear